[[{"header":{"parameterUnit":"m.s-1","parameterCategory":2,"la1":30.2991,"la2":30.254,"lo1":-89.0895,"lo2":-89.0444,"dy":0.0017,"dx":0.0017,"nx":28,"ny":28,"refTime":"2023-10-20T09:00:00:Z","depth":"0","parameterNumber":2,"parameterNumberName":"U-component_of_CURRENTS"},"data":[0,0,0,0,0,0,0,0,0,0,0,0,0,0,0,0,0,0,0,0,0,0,0,0,0,0,0,0,0,0,0,0,0,0,0,0,0,0,0,0,0,0,0,0,0,0,0,0,0,0,0,0,0,0,0,0,0,0,-0.2468,-0.2469,0,-0.2454,-0.2454,-0.2453,-0.2355,-0.2354,-0.2352,-0.235,-0.2215,-0.2213,-0.2211,0,0,0,0,0,0,0,0,0,0,0,0,0,-0.2367,-0.2369,-0.2468,-0.2469,-0.2469,-0.2454,-0.2454,-0.2453,-0.2356,-0.2354,-0.2352,-0.235,-0.2216,-0.2214,-0.2211,0,0,0,0,0,0,0,0,0,0,0,0,0,-0.2381,-0.237,-0.2468,-0.2425,-0.2421,-0.2455,-0.2453,-0.2452,-0.2356,-0.2354,-0.2351,-0.2349,-0.2217,-0.2214,-0.2211,-0.2243,0,0,-0.2202,-0.22,0,0,0,0,0,0,0,0,-0.238,-0.2384,-0.2431,-0.2428,-0.2424,-0.2411,-0.2369,-0.2379,-0.2357,-0.2373,-0.235,-0.2347,-0.2276,-0.2268,-0.2262,-0.2237,-0.2231,-0.2201,-0.22,-0.2198,-0.2197,0,0,0,0,0,0,0,-0.2379,-0.2384,-0.2455,-0.2432,-0.2428,-0.2391,-0.239,-0.237,-0.2331,-0.2371,-0.2366,-0.2377,-0.2272,-0.2266,-0.2258,-0.2229,-0.2201,-0.2199,-0.2197,-0.2196,-0.2234,-0.2237,0,0,0,0,0,0,-0.2402,-0.2384,-0.2456,-0.2455,-0.2404,-0.2396,-0.2394,-0.2411,-0.2334,-0.2323,-0.238,-0.2373,-0.2272,-0.2262,-0.2253,-0.2279,-0.2198,-0.2195,-0.2194,-0.2231,-0.2235,-0.2238,0,0,0,0,0,0,-0.24,-0.2409,-0.2456,-0.2424,-0.2428,-0.2401,-0.2421,-0.2413,-0.24,-0.2343,-0.2327,-0.2376,-0.227,-0.2257,-0.225,-0.2272,-0.2194,-0.2191,-0.2228,-0.2232,-0.2236,-0.2335,0,0,0,0,0,0,-0.2397,-0.2408,-0.2418,-0.2426,-0.2432,-0.2493,-0.2424,-0.2414,-0.2415,-0.2406,-0.2335,-0.232,-0.2267,-0.2256,-0.2248,-0.2267,-0.2189,-0.2224,-0.223,-0.2235,-0.2328,-0.2342,-0.2354,0,0,0,0,0,-0.2394,-0.2427,-0.2418,-0.2427,-0.2449,-0.2496,-0.2495,-0.2461,-0.2418,-0.2434,-0.2386,-0.2322,-0.2283,-0.2256,-0.2246,-0.2264,-0.2222,-0.2228,-0.2234,-0.2322,-0.2339,-0.2353,0,0,0,0,0,0,-0.2374,-0.2422,-0.2411,-0.2452,-0.248,-0.2482,-0.2493,-0.2474,-0.245,-0.2427,-0.2356,-0.2341,-0.2347,-0.2307,-0.2278,-0.2298,-0.2243,-0.2248,-0.2314,-0.2329,-0.2342,-0.2293,-0.2186,0,0,0,0,0,-0.2383,-0.2421,-0.2458,-0.2486,-0.2509,-0.2502,-0.251,-0.2496,-0.2485,-0.247,-0.2429,-0.2389,-0.2371,-0.2349,-0.2332,-0.2339,-0.2279,-0.235,-0.2363,-0.2373,-0.2332,-0.2284,-0.2287,-0.2259,-0.2259,-0.2258,0,0,-0.237,-0.2412,-0.2422,-0.2485,-0.2496,-0.2548,-0.2498,-0.2528,-0.2543,-0.2461,-0.2463,-0.2437,-0.2389,-0.2398,-0.2396,-0.2359,-0.2364,-0.2381,-0.2391,-0.2341,-0.2291,-0.2293,-0.2295,-0.2263,-0.2262,-0.2261,0,0,-0.2406,-0.2419,-0.2476,-0.2518,-0.2569,-0.2574,-0.2591,-0.2612,-0.259,-0.2616,-0.2553,-0.253,-0.2526,-0.2472,-0.2449,-0.2525,-0.2444,-0.2545,-0.255,-0.2507,-0.2507,-0.2506,-0.2478,-0.2474,-0.2539,-0.2539,-0.2539,0,-0.2383,-0.2461,-0.2496,-0.2576,-0.2588,-0.2596,-0.2638,-0.2652,-0.2659,-0.2632,-0.2632,-0.2598,-0.2549,-0.2522,-0.2536,-0.2544,-0.2517,-0.2491,-0.2519,-0.2516,-0.2513,-0.2484,-0.2477,-0.2544,-0.2544,-0.2543,-0.2543,0,-0.2476,-0.2529,-0.2569,-0.2661,-0.2689,-0.2725,-0.2756,-0.2764,-0.2746,-0.2742,-0.2732,-0.2693,-0.2643,-0.2658,-0.2606,-0.2575,-0.2565,-0.2549,-0.2467,-0.2521,-0.2489,-0.248,-0.2552,-0.255,-0.2549,-0.2547,0,0,-0.2415,-0.2591,-0.26,-0.2621,-0.2717,-0.2727,-0.2778,-0.2786,-0.2769,-0.2806,-0.2774,-0.2758,-0.2715,-0.2683,-0.2641,-0.2598,-0.2562,-0.2558,-0.2553,-0.2507,-0.2482,-0.239,-0.2371,-0.2558,-0.2556,-0.2554,-0.2482,0,-0.2448,-0.2587,-0.2664,-0.2721,-0.276,-0.2778,-0.2807,-0.2815,-0.2819,-0.2808,-0.2777,-0.2754,-0.2739,-0.2699,-0.2664,-0.2563,-0.2537,-0.2582,-0.2452,-0.2448,-0.2339,-0.2357,-0.2191,-0.2103,-0.2473,-0.2471,-0.247,0,-0.2503,-0.2567,-0.2659,-0.2695,-0.2708,-0.2738,-0.271,-0.2744,-0.2759,-0.276,-0.276,-0.2748,-0.2676,-0.2672,-0.2555,-0.2588,-0.253,-0.2485,-0.2481,-0.2333,-0.2337,-0.2102,-0.2072,-0.2067,-0.2456,-0.2457,-0.2458,0,-0.2418,-0.2536,-0.2583,-0.2612,-0.2692,-0.2672,-0.2674,-0.2702,-0.2696,-0.2713,-0.27,-0.2686,-0.2618,-0.2577,-0.2487,-0.2506,-0.2374,-0.2388,-0.2276,-0.2271,-0.2063,-0.2041,-0.1974,-0.232,-0.232,-0.232,-0.2321,0,-0.2422,-0.2436,-0.2532,-0.2555,-0.251,-0.2586,-0.2553,-0.2568,-0.2602,-0.2571,-0.2639,-0.26,-0.2582,-0.2524,-0.2479,-0.2333,-0.2367,-0.2248,-0.2228,-0.2102,-0.2085,-0.2015,-0.2067,-0.2318,-0.2318,-0.2319,-0.2319,0,-0.2345,-0.2452,-0.2458,-0.25,-0.2494,-0.2443,-0.2455,-0.2432,-0.2492,-0.2453,-0.2447,-0.2484,-0.24,-0.2412,-0.2315,-0.2266,-0.213,-0.2141,-0.2004,-0.1967,-0.1827,-0.1891,-0.1789,-0.1746,-0.1972,-0.1969,-0.1967,0,-0.2327,-0.235,-0.2371,-0.2337,-0.2345,-0.2306,-0.2277,-0.2347,-0.2317,-0.2358,-0.2292,-0.2279,-0.2229,-0.2114,-0.2022,-0.1948,-0.2014,-0.177,-0.1755,-0.1764,-0.1823,-0.19,-0.1879,-0.1549,-0.1543,-0.1538,-0.1534,0,-0.2212,-0.2236,-0.2233,-0.2178,-0.2129,-0.2093,-0.2042,-0.2022,-0.2084,-0.2087,-0.207,-0.207,-0.1968,-0.1788,-0.1704,-0.1667,-0.1709,-0.1668,-0.1692,-0.1479,-0.1536,-0.1503,-0.1691,-0.1492,-0.1497,-0.15,-0.1502,-0.1504,-0.2065,-0.2022,-0.2025,-0.1943,-0.1903,-0.1829,-0.1736,-0.1736,-0.1706,-0.1616,-0.1739,-0.1576,-0.1481,-0.1321,-0.1358,-0.1261,-0.1395,-0.12,-0.1279,-0.1359,-0.1296,-0.1399,-0.1173,-0.1176,-0.1178,-0.1179,-0.1181,0,-0.184,-0.1831,-0.1771,-0.1675,-0.1555,-0.1609,-0.1527,-0.1429,-0.1331,-0.1247,-0.1205,-0.0888,-0.0819,-0.0842,-0.0838,-0.086,-0.0906,-0.0902,-0.0968,-0.0965,-0.1029,-0.0986,-0.0687,-0.0687,-0.0687,-0.0687,-0.0688,-0.0688,-0.1712,-0.1613,-0.16,-0.1339,-0.1271,-0.1071,-0.0994,-0.0922,-0.0809,-0.0545,-0.0277,-0.0138,-0.0219,-0.0534,-0.0707,-0.0737,-0.0808,-0.0762,-0.0889,-0.0938,-0.0973,-0.1006,-0.0975,-0.068,-0.068,-0.0725,-0.0725,-0.0726]},{"header":{"parameterUnit":"m.s-1","parameterCategory":2,"la1":30.2991,"la2":30.254,"lo1":-89.0895,"lo2":-89.0444,"dy":0.0017,"dx":0.0017,"nx":28,"ny":28,"refTime":"2023-10-20T09:00:00:Z","depth":"0","parameterNumber":3,"parameterNumberName":"V-component_of_CURRENTS"},"data":[0,0,0,0,0,0,0,0,0,0,0,0,0,0,0,0,0,0,0,0,0,0,0,0,0,0,0,0,0,0,0,0,0,0,0,0,0,0,0,0,0,0,0,0,0,0,0,0,0,0,0,0,0,0,0,0,0,0,0.0129,0.0131,0,0.0274,0.0276,0.0277,0.0332,0.0332,0.0332,0.0331,0.0403,0.0406,0.0408,0,0,0,0,0,0,0,0,0,0,0,0,0,-0.0042,-0.004,0.0129,0.0131,0.0133,0.0274,0.0276,0.0278,0.0332,0.0332,0.0331,0.0331,0.0403,0.0405,0.0408,0,0,0,0,0,0,0,0,0,0,0,0,0,0.0058,-0.0039,0.0129,0.0178,0.0184,0.0274,0.0276,0.0278,0.0332,0.0332,0.0331,0.0331,0.0402,0.0405,0.0408,0.0437,0,0,0.0418,0.042,0,0,0,0,0,0,0,0,0.0052,0.0064,0.0169,0.0175,0.0182,0.0286,0.0242,0.0328,0.0332,0.0274,0.0331,0.0331,0.0359,0.0366,0.0393,0.044,0.0443,0.0419,0.0421,0.0422,0.0423,0,0,0,0,0,0,0,0.0045,0.0059,0.0185,0.0171,0.0179,0.0214,0.0227,0.0259,0.0314,0.0279,0.0284,0.0303,0.0362,0.0389,0.0394,0.0444,0.0419,0.0421,0.0423,0.0425,0.0514,0.0515,0,0,0,0,0,0,0.0029,0.0052,0.018,0.0189,0.0117,0.0217,0.0232,0.0252,0.0316,0.0326,0.0303,0.0305,0.0384,0.0391,0.0397,0.0434,0.0422,0.0425,0.0427,0.0514,0.0515,0.0515,0,0,0,0,0,0,0.0025,0.0039,0.0174,0.0125,0.0145,0.022,0.0243,0.0255,0.028,0.0335,0.0344,0.0315,0.0384,0.0392,0.0423,0.0437,0.0427,0.0429,0.0514,0.0514,0.0515,0.0507,0,0,0,0,0,0,0.0019,0.0036,0.004,0.0124,0.0147,0.0216,0.0244,0.0258,0.0293,0.0297,0.0348,0.0355,0.0384,0.0418,0.0426,0.0441,0.0432,0.0513,0.0514,0.0515,0.0507,0.0508,0.0508,0,0,0,0,0,0.0012,0.0019,0.0039,0.0055,0.0151,0.0216,0.023,0.0281,0.0294,0.0302,0.0339,0.0353,0.0429,0.0421,0.0431,0.0447,0.0513,0.0514,0.0515,0.0507,0.0507,0.0508,0,0,0,0,0,0,-0.0057,0.0028,0.0052,0.0082,0.0139,0.0225,0.0238,0.0277,0.0317,0.0312,0.0361,0.0371,0.0401,0.0423,0.0413,0.0474,0.0472,0.0475,0.0463,0.0464,0.0465,0.044,0.0435,0,0,0,0,0,-0.0069,-0.0043,0.004,0.0061,0.0085,0.016,0.0191,0.0227,0.0279,0.0296,0.0338,0.0376,0.0416,0.0436,0.0467,0.0503,0.0483,0.0518,0.0519,0.0519,0.0505,0.0516,0.0516,0.0518,0.0518,0.0518,0,0,-0.0091,-0.0041,-0.0027,0.0048,0.0092,0.0126,0.0176,0.0216,0.0249,0.0296,0.0336,0.0374,0.0423,0.0463,0.0479,0.0483,0.0498,0.052,0.052,0.0506,0.0517,0.0517,0.0516,0.0519,0.0519,0.0519,0,0,-0.0129,-0.0079,-0.0077,-0.0028,0.0038,0.0093,0.0101,0.0183,0.022,0.0269,0.0312,0.036,0.0415,0.0466,0.0495,0.0517,0.0495,0.0522,0.0514,0.0526,0.0525,0.0525,0.045,0.0443,0.0529,0.0529,0.0529,0,-0.0167,-0.0144,-0.0068,-0.005,-0.0028,0.0072,0.0071,0.0144,0.0227,0.0247,0.027,0.0367,0.0421,0.0478,0.0497,0.052,0.0484,0.051,0.0525,0.0524,0.0524,0.0448,0.044,0.0529,0.0529,0.0529,0.0529,0,-0.0197,-0.0181,-0.0176,-0.0121,-0.0084,-0.0064,0.0036,0.0077,0.0133,0.0203,0.0262,0.0349,0.0396,0.0441,0.0484,0.0517,0.0473,0.0518,0.052,0.0523,0.0442,0.0434,0.0528,0.0529,0.0529,0.0529,0,0,-0.0279,-0.0218,-0.0216,-0.0227,-0.0128,-0.0111,-0.0049,0.0019,0.0028,0.0152,0.0147,0.0301,0.0346,0.0383,0.0451,0.0494,0.0473,0.0504,0.0504,0.0419,0.0417,0.0549,0.0552,0.0516,0.0516,0.0516,0.0342,0,-0.0338,-0.0352,-0.0293,-0.0308,-0.0313,-0.0219,-0.0187,-0.0105,-0.0027,0.0002,0.0144,0.0179,0.0329,0.0329,0.0409,0.044,0.0459,0.051,0.0434,0.0429,0.0543,0.0553,0.0676,0.055,0.0335,0.0333,0.0332,0,-0.0388,-0.0396,-0.0431,-0.0438,-0.0437,-0.0421,-0.0394,-0.0344,-0.0235,-0.019,-0.0085,0.0003,0.0104,0.0208,0.0308,0.0323,0.0366,0.0409,0.0404,0.0528,0.0552,0.0523,0.0544,0.0688,0.032,0.0321,0.0322,0,-0.0496,-0.05,-0.0547,-0.0536,-0.0506,-0.0521,-0.0499,-0.0406,-0.0395,-0.0311,-0.0335,-0.0171,-0.0161,-0.0021,0.0158,0.019,0.0222,0.0268,0.0418,0.0422,0.0516,0.0533,0.067,0.0314,0.0315,0.0315,0.0316,0,-0.0577,-0.0616,-0.0606,-0.0625,-0.0701,-0.0639,-0.0689,-0.0636,-0.0601,-0.0637,-0.0443,-0.0472,-0.0216,-0.013,0.0046,0.0223,0.0143,0.0403,0.0412,0.0514,0.0532,0.0656,0.0708,0.0309,0.031,0.0311,0.0312,0,-0.0667,-0.0656,-0.0717,-0.0732,-0.0744,-0.0791,-0.0812,-0.085,-0.0797,-0.0861,-0.0855,-0.074,-0.0593,-0.0316,-0.0149,0.0046,0.0335,0.0296,0.0375,0.0404,0.0724,0.077,0.0842,0.0968,0.0392,0.0395,0.0397,0,-0.071,-0.0742,-0.08,-0.0846,-0.0853,-0.0908,-0.0959,-0.0937,-0.0981,-0.103,-0.1097,-0.0979,-0.082,-0.0478,-0.0085,0.0259,0.0395,0.0489,0.0641,0.0766,0.0819,0.0821,0.0922,0.0698,0.0703,0.0706,0.0709,0,-0.0783,-0.0797,-0.0844,-0.0938,-0.1012,-0.1114,-0.1184,-0.1253,-0.1272,-0.1314,-0.1367,-0.1241,-0.0835,-0.0324,0.0189,0.0387,0.0654,0.0576,0.0698,0.1082,0.1095,0.1213,0.0709,0.0742,0.0739,0.0737,0.0735,0.0733,-0.082,-0.0878,-0.0931,-0.1021,-0.1125,-0.1277,-0.1332,-0.142,-0.1502,-0.1453,-0.145,-0.1073,-0.0379,0.0428,0.0565,0.1008,0.0924,0.1154,0.1179,0.1151,0.1379,0.0937,0.1024,0.1023,0.1021,0.102,0.1019,0,-0.0842,-0.0906,-0.1005,-0.1121,-0.1236,-0.1286,-0.1444,-0.1453,-0.1516,-0.1348,-0.1209,-0.026,0.0377,0.0923,0.1511,0.1645,0.1644,0.1669,0.1693,0.176,0.1358,0.1491,0.1698,0.1698,0.1698,0.1698,0.1698,0.1697,-0.0852,-0.0931,-0.0989,-0.1159,-0.1247,-0.1351,-0.1419,-0.1435,-0.1285,-0.0809,-0.0213,0.028,0.109,0.1694,0.208,0.2098,0.2234,0.2161,0.2208,0.1936,0.1889,0.1845,0.1986,0.2293,0.2294,0.2643,0.2647,0.2649]}],[{"header":{"parameterUnit":"m.s-1","parameterCategory":2,"la1":30.2991,"la2":30.254,"lo1":-89.0895,"lo2":-89.0444,"dy":0.0017,"dx":0.0017,"nx":28,"ny":28,"refTime":"2023-10-20T09:00:00:Z","depth":"2","parameterNumber":2,"parameterNumberName":"U-component_of_CURRENTS"},"data":[0,0,0,0,0,0,0,0,0,0,0,0,0,0,0,0,0,0,0,0,0,0,0,0,0,0,0,0,0,0,0,0,0,0,0,0,0,0,0,0,0,0,0,0,0,0,0,0,0,0,0,0,0,0,0,0,0,0,-0.2208,-0.2209,0,-0.2295,-0.2296,-0.2297,-0.2339,-0.2338,-0.2338,-0.2338,-0.2645,-0.2653,-0.2661,0,0,0,0,0,0,0,0,0,0,0,0,0,-0.2116,-0.2118,-0.2208,-0.2209,-0.221,-0.2295,-0.2296,-0.2298,-0.2339,-0.2338,-0.2338,-0.2338,-0.2642,-0.2652,-0.2662,0,0,0,0,0,0,0,0,0,0,0,0,0,-0.2177,-0.2118,-0.2208,-0.2239,-0.2242,-0.2294,-0.2296,-0.2298,-0.2339,-0.2338,-0.2338,-0.2338,-0.2639,-0.2651,-0.2663,-0.275,0,0,-0.2702,-0.2708,0,0,0,0,0,0,0,0,-0.2174,-0.2181,-0.2233,-0.2237,-0.2241,-0.2303,-0.2376,-0.2459,-0.2339,-0.2305,-0.2338,-0.2337,-0.255,-0.2569,-0.2587,-0.2764,-0.2777,-0.2703,-0.2711,-0.2716,-0.272,0,0,0,0,0,0,0,-0.2169,-0.2178,-0.2245,-0.2234,-0.2239,-0.2261,-0.2269,-0.2391,-0.2435,-0.2308,-0.231,-0.2316,-0.2553,-0.2575,-0.2596,-0.2782,-0.2703,-0.2714,-0.2722,-0.2727,-0.3172,-0.3176,0,0,0,0,0,0,-0.2152,-0.2174,-0.2242,-0.2248,-0.2202,-0.2262,-0.2272,-0.2286,-0.2429,-0.2448,-0.2316,-0.2318,-0.2553,-0.2581,-0.2607,-0.2766,-0.2716,-0.2728,-0.2735,-0.3167,-0.3173,-0.3177,0,0,0,0,0,0,-0.215,-0.2158,-0.2239,-0.221,-0.2221,-0.2264,-0.228,-0.2288,-0.2302,-0.2432,-0.2456,-0.2321,-0.2554,-0.2589,-0.2744,-0.2777,-0.2734,-0.2745,-0.3162,-0.3169,-0.3175,-0.3055,0,0,0,0,0,0,-0.2147,-0.2157,-0.2163,-0.2209,-0.2222,-0.2282,-0.228,-0.2289,-0.2306,-0.2308,-0.2446,-0.2473,-0.2557,-0.2725,-0.2757,-0.2793,-0.2755,-0.3157,-0.3165,-0.3173,-0.3054,-0.3057,-0.3059,0,0,0,0,0,-0.2144,-0.2165,-0.2163,-0.2171,-0.2229,-0.2283,-0.2294,-0.2323,-0.2306,-0.233,-0.2432,-0.2468,-0.2798,-0.2738,-0.2775,-0.2815,-0.3153,-0.3163,-0.3172,-0.3053,-0.3056,-0.3059,0,0,0,0,0,0,-0.2156,-0.2172,-0.2171,-0.2202,-0.2239,-0.229,-0.2316,-0.2316,-0.2406,-0.242,-0.2518,-0.2556,-0.2726,-0.2797,-0.2727,-0.2979,-0.2985,-0.3002,-0.2882,-0.2887,-0.2889,-0.2795,-0.2766,0,0,0,0,0,-0.2151,-0.2156,-0.2191,-0.2219,-0.2236,-0.2266,-0.2287,-0.2309,-0.2386,-0.242,-0.2518,-0.2649,-0.2796,-0.2853,-0.3013,-0.3121,-0.3084,-0.3182,-0.3184,-0.3185,-0.3142,-0.3079,-0.3066,-0.3208,-0.3208,-0.3208,0,0,-0.2151,-0.2173,-0.2169,-0.2218,-0.2249,-0.2282,-0.2281,-0.2326,-0.2349,-0.245,-0.2546,-0.2685,-0.2842,-0.2991,-0.3068,-0.304,-0.314,-0.3197,-0.3195,-0.3151,-0.3087,-0.3071,-0.3057,-0.3215,-0.3214,-0.3213,0,0,-0.2171,-0.2189,-0.2195,-0.2221,-0.2267,-0.2302,-0.2306,-0.2366,-0.2391,-0.2508,-0.2598,-0.2715,-0.2944,-0.3018,-0.3095,-0.3202,-0.3185,-0.3297,-0.3188,-0.3128,-0.3111,-0.3096,-0.3045,-0.3026,-0.3257,-0.3256,-0.3256,0,-0.2165,-0.2189,-0.2212,-0.2236,-0.2261,-0.2302,-0.2329,-0.2364,-0.2468,-0.2493,-0.2546,-0.28,-0.2941,-0.3032,-0.3096,-0.3194,-0.3162,-0.3143,-0.3114,-0.3098,-0.3084,-0.3036,-0.3016,-0.3252,-0.3252,-0.3253,-0.3253,0,-0.2175,-0.2201,-0.2221,-0.2253,-0.2295,-0.2332,-0.238,-0.243,-0.2483,-0.251,-0.2631,-0.2781,-0.2905,-0.2991,-0.309,-0.3089,-0.3102,-0.3138,-0.3061,-0.3059,-0.3014,-0.2995,-0.3245,-0.3247,-0.3248,-0.3249,0,0,-0.2127,-0.2203,-0.2207,-0.2234,-0.2303,-0.2344,-0.2396,-0.2448,-0.2463,-0.2545,-0.2559,-0.2766,-0.279,-0.2877,-0.2973,-0.2918,-0.2837,-0.2979,-0.2979,-0.285,-0.2693,-0.2636,-0.261,-0.2846,-0.2842,-0.2839,-0.27,0,-0.2122,-0.2173,-0.2215,-0.2274,-0.2307,-0.2366,-0.241,-0.2461,-0.2524,-0.2563,-0.26,-0.2702,-0.2754,-0.2828,-0.2768,-0.288,-0.2782,-0.2871,-0.2784,-0.2781,-0.2662,-0.2584,-0.2403,-0.2257,-0.2682,-0.2678,-0.2676,0,-0.2102,-0.2146,-0.2193,-0.229,-0.2308,-0.2346,-0.2426,-0.2469,-0.2508,-0.2554,-0.2556,-0.2618,-0.2609,-0.2654,-0.2596,-0.2651,-0.2645,-0.2658,-0.2654,-0.2611,-0.2685,-0.2337,-0.2206,-0.2644,-0.2647,-0.2649,-0.2651,0,-0.205,-0.2137,-0.2181,-0.2201,-0.2302,-0.2335,-0.2394,-0.2455,-0.2483,-0.252,-0.2552,-0.2518,-0.2549,-0.2479,-0.2527,-0.2562,-0.2437,-0.2495,-0.2387,-0.2385,-0.2216,-0.2204,-0.2359,-0.2359,-0.2359,-0.236,-0.236,0,-0.2017,-0.205,-0.2157,-0.2163,-0.2215,-0.2305,-0.2346,-0.2401,-0.2454,-0.2459,-0.2514,-0.2499,-0.2506,-0.2464,-0.2458,-0.2351,-0.2357,-0.2316,-0.2317,-0.2183,-0.217,-0.2512,-0.2532,-0.2354,-0.2356,-0.2357,-0.2357,0,-0.1936,-0.2004,-0.2051,-0.2152,-0.2182,-0.2212,-0.2305,-0.2324,-0.2402,-0.2409,-0.2418,-0.247,-0.2413,-0.2386,-0.2327,-0.2278,-0.2196,-0.2149,-0.2,-0.1983,-0.2197,-0.2214,-0.1982,-0.1978,-0.1975,-0.1972,-0.197,0,-0.1902,-0.1908,-0.2004,-0.2018,-0.2055,-0.2117,-0.2144,-0.226,-0.228,-0.2366,-0.2348,-0.2345,-0.2297,-0.2179,-0.208,-0.1954,-0.2073,-0.1746,-0.1765,-0.2118,-0.2144,-0.2167,-0.2188,-0.151,-0.1504,-0.1499,-0.1496,0,-0.1802,-0.1828,-0.186,-0.189,-0.1924,-0.1963,-0.202,-0.2041,-0.2156,-0.217,-0.2182,-0.2166,-0.2079,-0.1878,-0.1754,-0.1673,-0.1755,-0.1644,-0.1992,-0.1657,-0.1668,-0.1697,-0.1733,-0.1453,-0.1457,-0.146,-0.1463,-0.1464,-0.1712,-0.1704,-0.1732,-0.1751,-0.1784,-0.1788,-0.1765,-0.1815,-0.1819,-0.1806,-0.1957,-0.1869,-0.185,-0.155,-0.1428,-0.1315,-0.1451,-0.1388,-0.1404,-0.1425,-0.1418,-0.1424,-0.1162,-0.1165,-0.1167,-0.1169,-0.1171,0,-0.1593,-0.1583,-0.1589,-0.16,-0.157,-0.1634,-0.1651,-0.1595,-0.1522,-0.1528,-0.1531,-0.1418,-0.1275,-0.1237,-0.0976,-0.0932,-0.0942,-0.0903,-0.0914,-0.0955,-0.0991,-0.0966,-0.0588,-0.0587,-0.0586,-0.0584,0,0,-0.1522,-0.1473,-0.1474,-0.138,-0.1378,-0.1286,-0.126,-0.1183,-0.1148,-0.1035,-0.0984,-0.1167,-0.1185,-0.091,-0.0825,-0.0645,-0.0796,-0.0603,-0.1062,-0.1112,-0.1147,-0.1252,-0.1256,0,0,0,0,0]},{"header":{"parameterUnit":"m.s-1","parameterCategory":2,"la1":30.2991,"la2":30.254,"lo1":-89.0895,"lo2":-89.0444,"dy":0.0017,"dx":0.0017,"nx":28,"ny":28,"refTime":"2023-10-20T09:00:00:Z","depth":"2","parameterNumber":3,"parameterNumberName":"V-component_of_CURRENTS"},"data":[0,0,0,0,0,0,0,0,0,0,0,0,0,0,0,0,0,0,0,0,0,0,0,0,0,0,0,0,0,0,0,0,0,0,0,0,0,0,0,0,0,0,0,0,0,0,0,0,0,0,0,0,0,0,0,0,0,0,-0.0268,-0.0267,0,-0.0197,-0.0196,-0.0195,-0.0112,-0.0111,-0.011,-0.0109,0.0152,0.0157,0.0163,0,0,0,0,0,0,0,0,0,0,0,0,0,-0.027,-0.0271,-0.0268,-0.0267,-0.0266,-0.0197,-0.0196,-0.0195,-0.0113,-0.0111,-0.011,-0.0109,0.015,0.0157,0.0164,0,0,0,0,0,0,0,0,0,0,0,0,0,-0.024,-0.0271,-0.0268,-0.0218,-0.0213,-0.0197,-0.0196,-0.0195,-0.0113,-0.0111,-0.011,-0.0108,0.0147,0.0156,0.0165,0.0187,0,0,0.0192,0.0196,0,0,0,0,0,0,0,0,-0.0242,-0.0239,-0.0226,-0.0222,-0.0216,-0.0163,-0.0101,-0.0058,-0.0113,-0.0149,-0.0109,-0.0107,0.0061,0.0077,0.0087,0.0199,0.021,0.0193,0.0198,0.0202,0.0204,0,0,0,0,0,0,0,-0.0244,-0.0242,-0.0238,-0.0226,-0.022,-0.0179,-0.0173,-0.0093,-0.0049,-0.0146,-0.014,-0.0136,0.0066,0.0078,0.0094,0.0214,0.0192,0.02,0.0206,0.0209,0.0468,0.047,0,0,0,0,0,0,-0.0262,-0.0244,-0.024,-0.0236,-0.0227,-0.018,-0.0174,-0.0181,-0.0054,-0.0035,-0.0137,-0.0132,0.0062,0.0084,0.0104,0.0185,0.0202,0.021,0.0215,0.0467,0.0469,0.047,0,0,0,0,0,0,-0.0262,-0.0263,-0.0243,-0.0239,-0.0234,-0.0183,-0.019,-0.018,-0.0164,-0.005,-0.0026,-0.0132,0.0064,0.0092,0.016,0.0194,0.0214,0.0222,0.0465,0.0467,0.047,0.0318,0,0,0,0,0,0,-0.0263,-0.0264,-0.0272,-0.0241,-0.0235,-0.0245,-0.0192,-0.018,-0.0165,-0.0158,-0.0037,-0.0012,0.0068,0.0146,0.0169,0.0207,0.0229,0.0463,0.0466,0.0469,0.0321,0.0315,0.0309,0,0,0,0,0,-0.0263,-0.0285,-0.0273,-0.0272,-0.0249,-0.0246,-0.024,-0.0195,-0.0167,-0.0172,-0.0095,-0.0015,0.0184,0.0152,0.0179,0.0221,0.0462,0.0465,0.0469,0.0323,0.0316,0.031,0,0,0,0,0,0,-0.029,-0.0278,-0.0264,-0.028,-0.027,-0.0233,-0.0229,-0.0206,-0.0154,-0.0133,-0.0028,0.0001,0.0098,0.0171,0.0133,0.0312,0.035,0.0359,0.0231,0.0225,0.0219,0.0159,0.0237,0,0,0,0,0,-0.0303,-0.0314,-0.0298,-0.0311,-0.0307,-0.0272,-0.0263,-0.0237,-0.019,-0.0166,-0.0088,0.0021,0.0132,0.0179,0.0287,0.0346,0.0389,0.0406,0.04,0.0394,0.0368,0.0416,0.041,0.0482,0.0482,0.0482,0,0,-0.0317,-0.0311,-0.0317,-0.0317,-0.0298,-0.0306,-0.0261,-0.0254,-0.0251,-0.0142,-0.0104,0.0005,0.0148,0.0233,0.0284,0.0292,0.0405,0.0399,0.0392,0.0369,0.0419,0.0411,0.0404,0.0484,0.0484,0.0483,0,0,-0.0357,-0.0346,-0.037,-0.0367,-0.0352,-0.033,-0.0336,-0.0305,-0.0279,-0.0245,-0.0134,-0.0052,0.0099,0.0186,0.026,0.028,0.0383,0.0368,0.0271,0.0317,0.031,0.0304,0.0361,0.0361,0.035,0.0349,0.0349,0,-0.0371,-0.0398,-0.0377,-0.0398,-0.039,-0.0349,-0.0366,-0.0346,-0.0297,-0.0265,-0.0244,-0.0035,0.0068,0.0179,0.0194,0.0262,0.0316,0.0274,0.0301,0.0296,0.0292,0.0353,0.0355,0.0343,0.0343,0.0344,0.0345,0,-0.043,-0.0445,-0.0458,-0.0467,-0.046,-0.0466,-0.0436,-0.0416,-0.0375,-0.034,-0.0241,-0.0138,-0.0011,0.0052,0.0125,0.0188,0.0247,0.0291,0.0295,0.0274,0.0342,0.0346,0.0333,0.0335,0.0337,0.0339,0,0,-0.0468,-0.0494,-0.0497,-0.0507,-0.0489,-0.0492,-0.0475,-0.0442,-0.0416,-0.0376,-0.0332,-0.0196,-0.0138,-0.0054,0.0055,0.0073,0.0092,0.0157,0.0163,0.0171,0.0212,0.0261,0.0272,0.0144,0.0144,0.0144,0.0272,0,-0.0513,-0.0571,-0.0559,-0.0591,-0.061,-0.0555,-0.0548,-0.0507,-0.0447,-0.0397,-0.0311,-0.022,-0.0175,-0.0102,-0.0083,0.0089,0.0097,0.0054,0.0269,0.0275,0.0284,0.0275,0.0266,0.038,0.0277,0.0278,0.0279,0,-0.0574,-0.0596,-0.0644,-0.0645,-0.0645,-0.0653,-0.0593,-0.0579,-0.0492,-0.0443,-0.037,-0.0276,-0.0197,-0.0175,-0.0018,-0.0035,0.0059,0.0139,0.0148,0.024,0.0331,0.0389,0.0393,0.0287,0.0286,0.0286,0.0285,0,-0.0618,-0.0652,-0.0687,-0.0691,-0.0689,-0.0677,-0.066,-0.0587,-0.0564,-0.0462,-0.0417,-0.0315,-0.023,-0.014,0.0022,0.0023,0.0182,0.0217,0.0329,0.0335,0.039,0.0401,0.0271,0.0271,0.027,0.027,0.027,0,-0.0671,-0.0699,-0.0714,-0.0734,-0.0758,-0.0727,-0.072,-0.0674,-0.0605,-0.0555,-0.045,-0.0367,-0.022,-0.0095,0.0015,0.0193,0.0181,0.03,0.0362,0.0344,0.0349,0.0319,0.0323,0.0275,0.0274,0.0273,0.0272,0,-0.0721,-0.0738,-0.0779,-0.0784,-0.079,-0.0802,-0.0787,-0.0772,-0.0692,-0.0614,-0.0583,-0.0393,-0.0201,-0.0073,0.013,0.0215,0.0359,0.0412,0.0383,0.0437,0.0484,0.0479,0.0561,0.0564,0.0566,0.0568,0.0569,0,-0.0757,-0.0785,-0.0823,-0.0851,-0.0856,-0.0871,-0.088,-0.0829,-0.0797,-0.0608,-0.0568,-0.0357,-0.0161,0.0132,0.0297,0.0479,0.0441,0.0562,0.0536,0.0456,0.0509,0.0501,0.0494,0.0566,0.0567,0.0569,0.0569,0,-0.0801,-0.0814,-0.0845,-0.0906,-0.0935,-0.0962,-0.0957,-0.0944,-0.0834,-0.0725,-0.0497,-0.031,0.0002,0.026,0.0469,0.056,0.053,0.0593,0.053,0.0486,0.0469,0.0518,0.0509,0.058,0.0579,0.0578,0.0577,0.0577,-0.0822,-0.0858,-0.0901,-0.0953,-0.0993,-0.1009,-0.1003,-0.0955,-0.0862,-0.0635,-0.0435,-0.0112,0.0075,0.044,0.057,0.0671,0.0668,0.0685,0.0678,0.067,0.064,0.0627,0.0762,0.0762,0.0762,0.0762,0.0762,0,-0.084,-0.0883,-0.0941,-0.1001,-0.1039,-0.1048,-0.1023,-0.0972,-0.0828,-0.0533,-0.0266,0.0007,0.0302,0.0468,0.0668,0.0782,0.074,0.0772,0.0697,0.0688,0.068,0.0645,0.0772,0.0772,0.0772,0.0772,0,0,-0.0853,-0.091,-0.0944,-0.1013,-0.105,-0.1053,-0.102,-0.0917,-0.0702,-0.0397,-0.0132,0.018,0.0393,0.0507,0.0627,0.0737,0.069,0.0733,0.0719,0.0614,0.0605,0.0627,0.0564,0,0,0,0,0]}],[{"header":{"parameterUnit":"m.s-1","parameterCategory":2,"la1":30.2991,"la2":30.254,"lo1":-89.0895,"lo2":-89.0444,"dy":0.0017,"dx":0.0017,"nx":28,"ny":28,"refTime":"2023-10-20T09:00:00:Z","depth":"4","parameterNumber":2,"parameterNumberName":"U-component_of_CURRENTS"},"data":[0,0,0,0,0,0,0,0,0,0,0,0,0,0,0,0,0,0,0,0,0,0,0,0,0,0,0,0,0,0,0,0,0,0,0,0,0,0,0,0,0,0,0,0,0,0,0,0,0,0,0,0,0,0,0,0,0,0,-0.1485,-0.1486,0,-0.1581,-0.1582,-0.1583,-0.1628,-0.1628,-0.1628,-0.1628,-0.1696,-0.1698,-0.1699,0,0,0,0,0,0,0,0,0,0,0,0,0,-0.1375,-0.1376,-0.1484,-0.1486,-0.1487,-0.1581,-0.1582,-0.1583,-0.1628,-0.1628,-0.1628,-0.1628,-0.1695,-0.1697,-0.17,0,0,0,0,0,0,0,0,0,0,0,0,0,-0.1441,-0.1376,-0.1484,-0.1521,-0.1526,-0.1581,-0.1582,-0.1584,-0.1628,-0.1628,-0.1628,-0.1628,-0.1695,-0.1697,-0.17,-0.1716,0,0,-0.1708,-0.1709,0,0,0,0,0,0,0,0,-0.1437,-0.1445,-0.1515,-0.1519,-0.1524,-0.1593,-0.1568,-0.1627,-0.1628,-0.1588,-0.1628,-0.1628,-0.1659,-0.1665,-0.1682,-0.1719,-0.1722,-0.1708,-0.171,-0.1711,-0.1712,0,0,0,0,0,0,0,-0.1432,-0.1441,-0.1522,-0.1516,-0.1522,-0.1545,-0.1554,-0.158,-0.1621,-0.1592,-0.1596,-0.1608,-0.1662,-0.168,-0.1684,-0.1723,-0.1708,-0.1711,-0.1712,-0.1713,-0.1827,-0.1829,0,0,0,0,0,0,-0.142,-0.1437,-0.1519,-0.1525,-0.1481,-0.1547,-0.1557,-0.157,-0.1622,-0.163,-0.1608,-0.1609,-0.1675,-0.1681,-0.1687,-0.1751,-0.1711,-0.1714,-0.1715,-0.1826,-0.1828,-0.1829,0,0,0,0,0,0,-0.1418,-0.1427,-0.1515,-0.1483,-0.1496,-0.1549,-0.1563,-0.1572,-0.1611,-0.1634,-0.1642,-0.1639,-0.1675,-0.1683,-0.1738,-0.1752,-0.1715,-0.1717,-0.1824,-0.1827,-0.1829,-0.1853,0,0,0,0,0,0,-0.1414,-0.1425,-0.1442,-0.1483,-0.1498,-0.1565,-0.1564,-0.1574,-0.1617,-0.1621,-0.1664,-0.1669,-0.1676,-0.1734,-0.1741,-0.1755,-0.1719,-0.1823,-0.1825,-0.1828,-0.185,-0.1855,-0.186,0,0,0,0,0,-0.141,-0.1427,-0.1443,-0.1453,-0.1516,-0.1567,-0.1578,-0.1614,-0.1619,-0.1646,-0.1678,-0.1669,-0.1755,-0.1739,-0.1746,-0.1761,-0.1821,-0.1825,-0.1828,-0.1848,-0.1854,-0.186,0,0,0,0,0,0,-0.1387,-0.1434,-0.1452,-0.1483,-0.1531,-0.1575,-0.1603,-0.1626,-0.1674,-0.1682,-0.1696,-0.1704,-0.1758,-0.1761,-0.1742,-0.1803,-0.1783,-0.1788,-0.1796,-0.1802,-0.1807,-0.1807,-0.1722,0,0,0,0,0,-0.139,-0.1416,-0.1467,-0.1495,-0.1519,-0.1565,-0.1594,-0.1623,-0.1664,-0.1686,-0.1718,-0.1747,-0.1774,-0.179,-0.1822,-0.1857,-0.1848,-0.187,-0.1875,-0.1879,-0.1885,-0.1904,-0.1911,-0.184,-0.184,-0.184,0,0,-0.1391,-0.1418,-0.1436,-0.1492,-0.1529,-0.1576,-0.1583,-0.1636,-0.1677,-0.1685,-0.1754,-0.1775,-0.1791,-0.1835,-0.1857,-0.184,-0.1889,-0.1883,-0.1886,-0.189,-0.1908,-0.1915,-0.1921,-0.1842,-0.1841,-0.1841,0,0,-0.1398,-0.143,-0.1457,-0.1501,-0.1564,-0.1596,-0.1615,-0.168,-0.1713,-0.1779,-0.1789,-0.182,-0.1876,-0.1882,-0.1889,-0.194,-0.1922,-0.1952,-0.1969,-0.1987,-0.1993,-0.1998,-0.1965,-0.1967,-0.1945,-0.1945,-0.1945,0,-0.1402,-0.1439,-0.1475,-0.1515,-0.1558,-0.1605,-0.1656,-0.1695,-0.1772,-0.1804,-0.1808,-0.1885,-0.1892,-0.1925,-0.194,-0.1948,-0.1948,-0.1941,-0.1992,-0.1997,-0.2002,-0.1967,-0.1969,-0.1947,-0.1946,-0.1946,-0.1946,0,-0.1425,-0.1472,-0.1492,-0.1558,-0.161,-0.1661,-0.1723,-0.178,-0.1822,-0.1858,-0.1922,-0.1937,-0.1976,-0.1977,-0.1974,-0.2009,-0.1992,-0.2001,-0.1972,-0.201,-0.1971,-0.1973,-0.1949,-0.1948,-0.1948,-0.1947,0,0,-0.1391,-0.1491,-0.1501,-0.1554,-0.1642,-0.1691,-0.1761,-0.184,-0.1888,-0.1944,-0.1996,-0.2025,-0.2033,-0.2041,-0.2035,-0.2041,-0.2051,-0.2038,-0.2038,-0.1995,-0.2067,-0.1919,-0.1905,-0.2081,-0.2082,-0.2083,-0.2015,0,-0.1404,-0.1484,-0.1534,-0.163,-0.1685,-0.1761,-0.1824,-0.1902,-0.1955,-0.2017,-0.2027,-0.2073,-0.2055,-0.2071,-0.2077,-0.2069,-0.2063,-0.2067,-0.2046,-0.2044,-0.1901,-0.1905,-0.2087,-0.2016,-0.2016,-0.2016,-0.2016,0,-0.1403,-0.1466,-0.1555,-0.1685,-0.1717,-0.1783,-0.1902,-0.1966,-0.2046,-0.2085,-0.2122,-0.2137,-0.2146,-0.2131,-0.212,-0.2131,-0.2105,-0.2086,-0.2083,-0.1941,-0.19,-0.1979,-0.2019,-0.2018,-0.2018,-0.2018,-0.2018,0,-0.1352,-0.1481,-0.1556,-0.1601,-0.1745,-0.1811,-0.189,-0.1989,-0.2039,-0.2123,-0.2153,-0.2182,-0.2187,-0.2182,-0.2128,-0.2142,-0.2104,-0.2114,-0.1948,-0.1935,-0.2079,-0.2075,-0.2113,-0.2113,-0.2113,-0.2113,-0.2113,0,-0.1326,-0.1395,-0.1549,-0.1591,-0.1697,-0.1808,-0.1904,-0.1984,-0.2073,-0.2108,-0.2177,-0.218,-0.2209,-0.2184,-0.2145,-0.2025,-0.2112,-0.1941,-0.1914,-0.2086,-0.2084,-0.2077,-0.2074,-0.2111,-0.2111,-0.2112,-0.2112,0,-0.1249,-0.1342,-0.1446,-0.1615,-0.167,-0.1748,-0.19,-0.1951,-0.2055,-0.2097,-0.2121,-0.2182,-0.2137,-0.2121,-0.2088,-0.2013,-0.1937,-0.1878,-0.2025,-0.2009,-0.1751,-0.175,-0.1685,-0.1679,-0.1674,-0.167,-0.1667,0,-0.1212,-0.1256,-0.1439,-0.1494,-0.1574,-0.1701,-0.1767,-0.1913,-0.1952,-0.2063,-0.2056,-0.2069,-0.2076,-0.1886,-0.1912,-0.1807,-0.179,-0.1745,-0.178,-0.173,-0.1711,-0.1717,-0.1723,-0.1659,-0.1658,-0.1657,-0.1656,0,-0.1147,-0.1218,-0.1301,-0.1408,-0.1498,-0.1588,-0.1696,-0.1715,-0.1851,-0.1959,-0.1919,-0.1884,-0.1825,-0.1773,-0.1697,-0.1637,-0.1776,-0.1695,-0.1705,-0.1738,-0.1698,-0.1685,-0.1696,-0.1639,-0.1641,-0.1643,-0.1644,0,-0.1094,-0.1128,-0.1226,-0.131,-0.1406,-0.1443,-0.1526,-0.1569,-0.1626,-0.1754,-0.1729,-0.1741,-0.1796,-0.1682,-0.1617,-0.1536,-0.1518,-0.1482,-0.1503,-0.1522,-0.1501,-0.1429,-0.1251,0,0,0,0,0,-0.1037,-0.1052,-0.1118,-0.1198,-0.1281,-0.1329,-0.1457,-0.1537,-0.1667,-0.1582,-0.1652,-0.1585,-0.15,-0.1519,-0.1393,-0.1542,-0.1526,-0.1393,-0.1497,-0.1546,-0.1566,-0.1556,0,0,0,0,0,0,-0.0996,-0.1047,-0.1075,-0.1076,-0.1096,-0.1167,-0.1238,-0.1331,-0.1303,-0.1432,-0.1382,-0.1476,-0.1404,-0.1513,-0.1348,-0.135,-0.1382,-0.1412,-0.1408,-0.1536,-0.1553,-0.1568,-0.1565,0,0,0,0,0]},{"header":{"parameterUnit":"m.s-1","parameterCategory":2,"la1":30.2991,"la2":30.254,"lo1":-89.0895,"lo2":-89.0444,"dy":0.0017,"dx":0.0017,"nx":28,"ny":28,"refTime":"2023-10-20T09:00:00:Z","depth":"4","parameterNumber":3,"parameterNumberName":"V-component_of_CURRENTS"},"data":[0,0,0,0,0,0,0,0,0,0,0,0,0,0,0,0,0,0,0,0,0,0,0,0,0,0,0,0,0,0,0,0,0,0,0,0,0,0,0,0,0,0,0,0,0,0,0,0,0,0,0,0,0,0,0,0,0,0,-0.0236,-0.0236,0,-0.0213,-0.0213,-0.0213,-0.0172,-0.0171,-0.0171,-0.017,-0.0123,-0.0122,-0.0122,0,0,0,0,0,0,0,0,0,0,0,0,0,-0.0208,-0.0209,-0.0236,-0.0236,-0.0236,-0.0213,-0.0213,-0.0213,-0.0172,-0.0171,-0.0171,-0.017,-0.0123,-0.0123,-0.0122,0,0,0,0,0,0,0,0,0,0,0,0,0,-0.0205,-0.0209,-0.0236,-0.0214,-0.0212,-0.0214,-0.0213,-0.0213,-0.0172,-0.0171,-0.017,-0.0169,-0.0124,-0.0123,-0.0122,-0.0136,0,0,-0.0119,-0.0118,0,0,0,0,0,0,0,0,-0.0206,-0.0206,-0.0217,-0.0215,-0.0213,-0.0195,-0.0186,-0.0186,-0.0173,-0.0186,-0.017,-0.0169,-0.0146,-0.0144,-0.0141,-0.0134,-0.0132,-0.0119,-0.0118,-0.0118,-0.0118,0,0,0,0,0,0,0,-0.0206,-0.0207,-0.0226,-0.0217,-0.0215,-0.0192,-0.0191,-0.0186,-0.0171,-0.0185,-0.0182,-0.0182,-0.0145,-0.0142,-0.0139,-0.0132,-0.0119,-0.0118,-0.0117,-0.0117,-0.014,-0.0141,0,0,0,0,0,0,-0.0214,-0.0208,-0.0227,-0.0226,-0.0208,-0.0194,-0.0192,-0.0201,-0.0172,-0.0167,-0.0183,-0.018,-0.0144,-0.014,-0.0137,-0.0163,-0.0118,-0.0117,-0.0116,-0.0139,-0.014,-0.0141,0,0,0,0,0,0,-0.0214,-0.0216,-0.0228,-0.0216,-0.0216,-0.0196,-0.0206,-0.0201,-0.0197,-0.017,-0.0164,-0.0183,-0.0143,-0.0139,-0.0138,-0.016,-0.0117,-0.0116,-0.0137,-0.0139,-0.0141,-0.0207,0,0,0,0,0,0,-0.0213,-0.0217,-0.0226,-0.0217,-0.0217,-0.0238,-0.0207,-0.0202,-0.0199,-0.0195,-0.0169,-0.0163,-0.0142,-0.014,-0.0137,-0.0158,-0.0115,-0.0136,-0.0138,-0.014,-0.0204,-0.0211,-0.0217,0,0,0,0,0,-0.0212,-0.0233,-0.0227,-0.0229,-0.0231,-0.0239,-0.0237,-0.0217,-0.02,-0.0208,-0.0188,-0.0164,-0.0151,-0.014,-0.0137,-0.0158,-0.0135,-0.0138,-0.014,-0.02,-0.021,-0.0217,0,0,0,0,0,0,-0.0224,-0.023,-0.0223,-0.0244,-0.0245,-0.0232,-0.0237,-0.0224,-0.0215,-0.0208,-0.0178,-0.0172,-0.018,-0.0162,-0.015,-0.0171,-0.014,-0.0142,-0.0187,-0.0195,-0.0202,-0.0178,-0.0114,0,0,0,0,0,-0.0233,-0.025,-0.0249,-0.0265,-0.0267,-0.0253,-0.0252,-0.0242,-0.0232,-0.0226,-0.0209,-0.0194,-0.0191,-0.0187,-0.0179,-0.0191,-0.0123,-0.0203,-0.021,-0.0216,-0.0195,-0.0109,-0.0105,-0.015,-0.015,-0.015,0,0,-0.0243,-0.0247,-0.0257,-0.0269,-0.0264,-0.028,-0.025,-0.0256,-0.0264,-0.0224,-0.0229,-0.0217,-0.0199,-0.0212,-0.0215,-0.0198,-0.0172,-0.0219,-0.0225,-0.02,-0.0111,-0.0106,-0.0102,-0.0152,-0.0151,-0.0151,0,0,-0.0275,-0.0275,-0.0301,-0.0305,-0.0307,-0.0301,-0.0306,-0.03,-0.029,-0.0302,-0.0273,-0.0269,-0.027,-0.0255,-0.0249,-0.029,-0.0212,-0.0298,-0.0312,-0.023,-0.0225,-0.0219,-0.0139,-0.0125,-0.0301,-0.0301,-0.0301,0,-0.0285,-0.0315,-0.0309,-0.0332,-0.0334,-0.0314,-0.0336,-0.0332,-0.0326,-0.0309,-0.0313,-0.0286,-0.0288,-0.0275,-0.0301,-0.0304,-0.0236,-0.0284,-0.0236,-0.0228,-0.0221,-0.014,-0.0125,-0.0305,-0.0304,-0.0304,-0.0304,0,-0.0334,-0.0355,-0.037,-0.0391,-0.0396,-0.041,-0.0403,-0.04,-0.0388,-0.0371,-0.0354,-0.0346,-0.0317,-0.0339,-0.034,-0.0302,-0.0264,-0.0253,-0.0208,-0.022,-0.0135,-0.0118,-0.031,-0.0308,-0.0307,-0.0307,0,0,-0.0358,-0.0397,-0.0402,-0.0416,-0.0424,-0.0433,-0.0439,-0.0428,-0.0407,-0.0405,-0.0368,-0.0392,-0.0355,-0.0346,-0.0336,-0.0289,-0.0214,-0.0258,-0.0252,-0.0167,-0.0016,-0.004,-0.0022,-0.0183,-0.018,-0.0178,0.002,0,-0.0393,-0.045,-0.0454,-0.0494,-0.0517,-0.0492,-0.0498,-0.048,-0.0448,-0.0407,-0.0375,-0.0349,-0.0366,-0.0351,-0.0305,-0.023,-0.0167,-0.0267,-0.0025,-0.0018,-0.0028,-0.0003,-0.0169,0.0033,0.0037,0.0041,0.0043,0,-0.0438,-0.0465,-0.0519,-0.0535,-0.054,-0.0559,-0.0526,-0.0524,-0.0457,-0.0426,-0.0369,-0.0324,-0.0265,-0.0276,-0.0121,-0.0176,-0.0098,-0.0041,-0.0032,-0.001,-0.0008,0.0051,0.0076,0.0074,0.0071,0.0069,0.0067,0,-0.0459,-0.0506,-0.0547,-0.0557,-0.0576,-0.058,-0.0578,-0.0528,-0.0506,-0.0417,-0.037,-0.028,-0.0217,-0.0112,-0.0019,-0.0047,0.0171,0.0154,0.0216,0.0216,0.021,0.0202,0.029,0.029,0.0289,0.0289,0.0288,0,-0.049,-0.0523,-0.0564,-0.0586,-0.0618,-0.061,-0.0607,-0.0579,-0.0512,-0.0452,-0.0376,-0.0285,-0.0168,-0.004,0.0033,0.0183,0.0226,0.0239,0.0273,0.0172,0.0158,0.0223,0.0212,0.0296,0.0294,0.0293,0.0292,0,-0.0511,-0.0542,-0.0593,-0.0624,-0.0638,-0.0657,-0.0654,-0.0634,-0.056,-0.0466,-0.0433,-0.0262,-0.0084,0.0026,0.0221,0.026,0.0389,0.0432,0.0329,0.035,0.0372,0.0355,0.0544,0.0545,0.0545,0.0546,0.0547,0,-0.0528,-0.056,-0.0628,-0.0663,-0.0685,-0.071,-0.0721,-0.0675,-0.063,-0.0435,-0.0378,-0.0178,-0.0062,0.021,0.0309,0.0472,0.0468,0.0538,0.0435,0.0388,0.0402,0.0384,0.0367,0.0548,0.0548,0.0548,0.0549,0,-0.055,-0.0582,-0.0622,-0.0699,-0.0737,-0.0763,-0.0758,-0.0719,-0.0608,-0.0545,-0.0299,-0.0131,0.0081,0.0249,0.0368,0.0475,0.0487,0.0546,0.0544,0.0448,0.0395,0.0405,0.0387,0.0551,0.0551,0.0551,0.0551,0,-0.0562,-0.0601,-0.0663,-0.0723,-0.0778,-0.0781,-0.0776,-0.0686,-0.0624,-0.0402,-0.0305,-0.0066,0.0081,0.0257,0.0375,0.0463,0.0471,0.047,0.0472,0.047,0.0354,0.027,0.0443,0,0,0,0,0,-0.0565,-0.0614,-0.068,-0.0745,-0.0796,-0.0819,-0.0783,-0.0751,-0.0626,-0.0462,-0.0381,-0.0178,0.0077,0.0206,0.0292,0.0345,0.0446,0.0444,0.0435,0.0567,0.0564,0.0434,0,0,0,0,0,0,-0.0573,-0.0639,-0.0679,-0.0744,-0.0787,-0.0824,-0.0794,-0.071,-0.0608,-0.0461,-0.0329,-0.02,0.0024,0.0007,0.0278,0.0314,0.0313,0.057,0.0571,0.0569,0.0566,0.0563,0.0428,0,0,0,0,0]}]]